| time (UTC) | temp F | wind direction | speed MPH | gust MPH | rain 1hr in | rain 24hr in | rain mn in | humidity % | barometer mb |
| 20260904171716 | 55 | 203 | 1.0 | 4.0 | 0.00 | 0.00 | 0.00 | 69 | 1019.2 |
| 20260904170717 | 55 | 229 | 2.0 | 4.0 | 0.00 | 0.00 | 0.00 | 68 | 1019.2 |
| 20260904165717 | 55 | 199 | 1.0 | 6.0 | 0.00 | 0.00 | 0.00 | 69 | 1019.2 |
| 20260904164719 | 54 | 205 | 0.0 | 0.0 | 0.00 | 0.00 | 0.00 | 69 | 1019.1 |
| 20260904161816 | 54 | 214 | 2.0 | 3.0 | 0.00 | 0.00 | 0.00 | 69 | 1018.8 |
| 20260904155816 | 53 | 150 | 1.0 | 2.0 | 0.00 | 0.00 | 0.00 | 68 | 1018.8 |
| 20260904153919 | 53 | 157 | 0.0 | 0.0 | 0.00 | 0.00 | 0.00 | 69 | 1018.7 |
| 20260904152917 | 53 | 192 | 1.0 | 2.0 | 0.00 | 0.00 | 0.00 | 70 | 1018.9 |
| 20260904151917 | 53 | 182 | 0.0 | 2.0 | 0.00 | 0.00 | 0.00 | 70 | 1018.8 |
| 20260904150917 | 52 | 165 | 2.0 | 4.0 | 0.00 | 0.00 | 0.00 | 70 | 1018.7 |
| 20260904145917 | 52 | 209 | 1.0 | 3.0 | 0.00 | 0.00 | 0.00 | 69 | 1018.7 |
| 20260904144919 | 52 | 179 | 2.0 | 4.0 | 0.00 | 0.00 | 0.00 | 68 | 1018.6 |
| 20260904144016 | 52 | 184 | 0.0 | 2.0 | 0.00 | 0.00 | 0.00 | 68 | 1018.6 |
| 20260904142016 | 52 | 178 | 4.0 | 7.0 | 0.00 | 0.00 | 0.00 | 68 | 1018.3 |
| 20260904141017 | 52 | 177 | 3.0 | 5.0 | 0.00 | 0.00 | 0.00 | 68 | 1018.4 |
| 20260904140019 | 52 | 212 | 1.0 | 2.0 | 0.00 | 0.00 | 0.00 | 67 | 1018.3 |
| 20260904134018 | 52 | 181 | 1.0 | 3.0 | 0.00 | 0.00 | 0.00 | 67 | 1018.3 |
| 20260904133017 | 52 | 170 | 2.0 | 3.0 | 0.00 | 0.00 | 0.00 | 67 | 1018.0 |
| 20260904132018 | 52 | 157 | 1.0 | 2.0 | 0.00 | 0.00 | 0.00 | 67 | 1018.0 |
| 20260904130116 | 52 | 177 | 4.0 | 6.0 | 0.00 | 0.00 | 0.00 | 67 | 1017.9 |
| 20260904124117 | 52 | 180 | 0.0 | 1.0 | 0.00 | 0.00 | 0.00 | 66 | 1017.8 |
| 20260904123116 | 52 | 167 | 2.0 | 2.0 | 0.00 | 0.00 | 0.00 | 68 | 1017.8 |
| 20260904122116 | 52 | 168 | 2.0 | 3.0 | 0.00 | 0.00 | 0.00 | 68 | 1017.8 |
| 20260904121120 | 52 | 180 | 3.0 | 4.0 | 0.00 | 0.00 | 0.00 | 67 | 1017.8 |
| 20260904120217 | 52 | 180 | 2.0 | 3.0 | 0.00 | 0.00 | 0.00 | 68 | 1017.8 |
| 20260904115219 | 52 | 180 | 0.0 | 3.0 | 0.00 | 0.00 | 0.00 | 67 | 1017.6 |
| 20260904114316 | 52 | 180 | 0.0 | 1.0 | 0.00 | 0.00 | 0.00 | 67 | 1017.8 |
| 20260904112318 | 52 | 180 | 0.0 | 1.0 | 0.00 | 0.00 | 0.00 | 65 | 1017.8 |
| 20260904111335 | 52 | 162 | 0.0 | 0.0 | 0.00 | 0.00 | 0.00 | 65 | 1017.9 |
| 20260904110317 | 52 | 163 | 0.0 | 1.0 | 0.00 | 0.00 | 0.00 | 64 | 1017.8 |
| 20260904105317 | 53 | 172 | 0.0 | 0.0 | 0.00 | 0.00 | 0.00 | 64 | 1017.7 |
| 20260904104317 | 53 | 180 | 0.0 | 0.0 | 0.00 | 0.00 | 0.00 | 63 | 1017.6 |
| 20260904103318 | 53 | 180 | 0.0 | 0.0 | 0.00 | 0.00 | 0.00 | 64 | 1017.6 |
| 20260904102415 | 53 | 180 | 0.0 | 0.0 | 0.00 | 0.00 | 0.00 | 63 | 1017.6 |
| 20260904101433 | 53 | 200 | 0.0 | 2.0 | 0.00 | 0.00 | 0.00 | 63 | 1017.4 |
| 20260904100517 | 53 | 225 | 0.0 | 1.0 | 0.00 | 0.00 | 0.00 | 64 | 1017.5 |
| 20260904095516 | 53 | 170 | 1.0 | 2.0 | 0.00 | 0.00 | 0.00 | 63 | 1017.4 |
| 20260904094518 | 53 | 225 | 0.0 | 2.0 | 0.00 | 0.00 | 0.00 | 64 | 1017.4 |
| 20260904092616 | 54 | 180 | 0.0 | 0.0 | 0.00 | 0.00 | 0.00 | 65 | 1017.5 |
| 20260904091617 | 54 | 201 | 0.0 | 0.0 | 0.00 | 0.00 | 0.00 | 64 | 1017.6 |
| 20260904090616 | 54 | 180 | 0.0 | 0.0 | 0.00 | 0.00 | 0.00 | 63 | 1017.6 |
| 20260904085616 | 54 | 173 | 2.0 | 3.0 | 0.00 | 0.00 | 0.00 | 64 | 1017.6 |
| 20260904084619 | 54 | 184 | 2.0 | 4.0 | 0.00 | 0.00 | 0.00 | 62 | 1017.6 |
| 20260904083616 | 54 | 169 | 2.0 | 3.0 | 0.00 | 0.00 | 0.00 | 63 | 1017.6 |
| 20260904081617 | 54 | 180 | 1.0 | 4.0 | 0.00 | 0.00 | 0.00 | 62 | 1017.6 |
| 20260904080617 | 54 | 173 | 3.0 | 5.0 | 0.00 | 0.00 | 0.00 | 64 | 1017.9 |
| 20260904075616 | 54 | 179 | 2.0 | 4.0 | 0.00 | 0.00 | 0.00 | 63 | 1017.7 |
| 20260904074617 | 54 | 172 | 3.0 | 5.0 | 0.00 | 0.00 | 0.00 | 64 | 1017.9 |
| 20260904073617 | 54 | 180 | 2.0 | 2.0 | 0.00 | 0.00 | 0.00 | 65 | 1017.9 |
| 20260904072619 | 54 | 167 | 4.0 | 5.0 | 0.00 | 0.00 | 0.00 | 64 | 1017.9 |
| 20260904070618 | 54 | 180 | 0.0 | 2.0 | 0.00 | 0.00 | 0.00 | 62 | 1018.2 |
| 20260904065715 | 54 | 180 | 0.0 | 0.0 | 0.00 | 0.00 | 0.00 | 62 | 1018.2 |
| 20260904064813 | 54 | 180 | 0.0 | 0.0 | 0.00 | 0.00 | 0.00 | 60 | 1018.2 |
| 20260904063816 | 54 | 202 | 0.0 | 0.0 | 0.00 | 0.00 | 0.00 | 60 | 1018.3 |
| 20260904062815 | 54 | 202 | 0.0 | 0.0 | 0.00 | 0.00 | 0.00 | 59 | 1018.4 |
| 20260904061914 | 54 | 202 | 0.0 | 0.0 | 0.00 | 0.00 | 0.00 | 59 | 1018.4 |
| 20260904055914 | 54 | 225 | 0.0 | 0.0 | 0.00 | 0.00 | 0.00 | 60 | 1018.5 |
| 20260904055013 | 54 | 225 | 0.0 | 0.0 | 0.00 | 0.00 | 0.00 | 60 | 1018.6 |
| 20260904054014 | 54 | 225 | 0.0 | 0.0 | 0.00 | 0.00 | 0.00 | 59 | 1018.6 |
| 20260904053113 | 54 | 225 | 0.0 | 0.0 | 0.00 | 0.00 | 0.00 | 59 | 1018.5 |
| 20260904052113 | 54 | 225 | 0.0 | 0.0 | 0.00 | 0.00 | 0.00 | 59 | 1018.7 |
| 20260904051114 | 54 | 180 | 0.0 | 0.0 | 0.00 | 0.00 | 0.00 | 60 | 1018.8 |
| 20260904050213 | 53 | 180 | 0.0 | 0.0 | 0.00 | 0.00 | 0.00 | 60 | 1018.8 |
| 20260904045215 | 53 | 180 | 0.0 | 0.0 | 0.00 | 0.00 | 0.00 | 59 | 1018.8 |
| 20260904044213 | 53 | 180 | 0.0 | 0.0 | 0.00 | 0.00 | 0.00 | 61 | 1018.7 |
| 20260904042214 | 53 | 157 | 0.0 | 0.0 | 0.00 | 0.00 | 0.00 | 61 | 1018.7 |
| 20260904041213 | 53 | 157 | 0.0 | 0.0 | 0.00 | 0.00 | 0.00 | 61 | 1018.6 |
| 20260904040213 | 53 | 157 | 0.0 | 0.0 | 0.00 | 0.00 | 0.00 | 60 | 1018.5 |
| 20260904035214 | 54 | 157 | 0.0 | 0.0 | 0.00 | 0.00 | 0.00 | 59 | 1018.5 |
| 20260904034213 | 54 | 157 | 0.0 | 0.0 | 0.00 | 0.00 | 0.00 | 60 | 1018.5 |
| 20260904032214 | 54 | 157 | 0.0 | 2.0 | 0.00 | 0.00 | 0.00 | 60 | 1018.4 |
| 20260904030314 | 55 | 157 | 0.0 | 0.0 | 0.00 | 0.00 | 0.00 | 59 | 1018.5 |
| 20260904025313 | 55 | 157 | 0.0 | 0.0 | 0.00 | 0.00 | 0.00 | 60 | 1018.4 |
| 20260904024314 | 55 | 157 | 0.0 | 0.0 | 0.00 | 0.00 | 0.00 | 60 | 1018.5 |
| 20260904023314 | 56 | 158 | 1.0 | 3.0 | 0.00 | 0.00 | 0.00 | 60 | 1018.3 |
| 20260904022412 | 56 | 157 | 0.0 | 2.0 | 0.00 | 0.00 | 0.00 | 58 | 1018.5 |
| 20260904021430 | 56 | 194 | 0.0 | 3.0 | 0.00 | 0.00 | 0.00 | 58 | 1018.6 |
| 20260904015515 | 57 | 157 | 0.0 | 1.0 | 0.00 | 0.00 | 0.00 | 60 | 1018.7 |
| 20260904014513 | 57 | 217 | 1.0 | 3.0 | 0.00 | 0.00 | 0.00 | 59 | 1018.6 |
| 20260904013515 | 58 | 165 | 0.0 | 2.0 | 0.00 | 0.00 | 0.00 | 59 | 1018.6 |
| 20260904011514 | 58 | 174 | 0.0 | 3.0 | 0.00 | 0.00 | 0.00 | 57 | 1018.7 |
| 20260904010514 | 58 | 169 | 0.0 | 1.0 | 0.00 | 0.00 | 0.00 | 58 | 1018.8 |
| 20260904005529 | 58 | 225 | 0.0 | 1.0 | 0.00 | 0.00 | 0.00 | 59 | 1018.8 |
| 20260904004513 | 59 | 211 | 0.0 | 0.0 | 0.00 | 0.00 | 0.00 | 58 | 1018.8 |
| 20260904003528 | 59 | 165 | 2.0 | 4.0 | 0.00 | 0.00 | 0.00 | 57 | 1018.9 |
| 20260904002613 | 60 | 214 | 3.0 | 5.0 | 0.00 | 0.00 | 0.00 | 55 | 1019.0 |
| 20260904001617 | 60 | 161 | 2.0 | 4.0 | 0.00 | 0.00 | 0.00 | 54 | 1018.9 |
| 20260904000614 | 60 | 180 | 0.0 | 1.0 | 0.00 | 0.00 | 0.00 | 54 | 1019.0 |
| 20260903235613 | 61 | 157 | 1.0 | 3.0 | 0.00 | 0.00 | 0.00 | 55 | 1019.1 |
| 20260903233716 | 62 | 224 | 0.0 | 0.0 | 0.00 | 0.00 | 0.00 | 53 | 1019.3 |
| 20260903232813 | 62 | 176 | 3.0 | 6.0 | 0.00 | 0.00 | 0.00 | 53 | 1019.3 |
| 20260903231814 | 62 | 258 | 1.0 | 3.0 | 0.00 | 0.00 | 0.00 | 53 | 1019.3 |
| 20260903230829 | 62 | 196 | 4.0 | 5.0 | 0.00 | 0.00 | 0.00 | 50 | 1019.4 |
| 20260903225917 | 62 | 230 | 2.0 | 4.0 | 0.00 | 0.00 | 0.00 | 49 | 1019.4 |
| 20260903224915 | 63 | 196 | 1.0 | 2.0 | 0.00 | 0.00 | 0.00 | 49 | 1019.5 |
| 20260903223914 | 63 | 225 | 0.0 | 2.0 | 0.00 | 0.00 | 0.00 | 49 | 1019.5 |
| 20260903223013 | 63 | 168 | 4.0 | 7.0 | 0.00 | 0.00 | 0.00 | 49 | 1019.5 |
| 20260903222013 | 64 | 173 | 4.0 | 7.0 | 0.00 | 0.00 | 0.00 | 48 | 1019.5 |
| 20260903221013 | 64 | 154 | 3.0 | 6.0 | 0.00 | 0.00 | 0.00 | 48 | 1019.5 |
| 20260903220013 | 64 | 189 | 1.0 | 4.0 | 0.00 | 0.00 | 0.00 | 49 | 1019.6 |
| 20260903215016 | 64 | 222 | 4.0 | 7.0 | 0.00 | 0.00 | 0.00 | 48 | 1019.7 |
| 20260903214015 | 64 | 169 | 2.0 | 4.0 | 0.00 | 0.00 | 0.00 | 47 | 1019.5 |
| 20260903213015 | 64 | 235 | 1.0 | 4.0 | 0.00 | 0.00 | 0.00 | 48 | 1019.6 |
| 20260903212013 | 64 | 282 | 1.0 | 4.0 | 0.00 | 0.00 | 0.00 | 48 | 1019.5 |
| 20260903210113 | 64 | 181 | 1.0 | 3.0 | 0.00 | 0.00 | 0.00 | 47 | 1019.7 |
| 20260903205212 | 64 | 197 | 3.0 | 5.0 | 0.00 | 0.00 | 0.00 | 47 | 1019.7 |
| 20260903204214 | 64 | 177 | 2.0 | 4.0 | 0.00 | 0.00 | 0.00 | 48 | 1019.9 |
| 20260903202314 | 64 | 152 | 2.0 | 5.0 | 0.00 | 0.00 | 0.00 | 45 | 1019.9 |
| 20260903200312 | 64 | 180 | 0.0 | 0.0 | 0.00 | 0.00 | 0.00 | 44 | 1019.9 |
| 20260903195315 | 64 | 197 | 1.0 | 5.0 | 0.00 | 0.00 | 0.00 | 42 | 1020.3 |
| 20260903194313 | 64 | 181 | 1.0 | 2.0 | 0.00 | 0.00 | 0.00 | 40 | 1020.2 |
| 20260903192316 | 65 | 168 | 2.0 | 4.0 | 0.00 | 0.00 | 0.00 | 37 | 1020.4 |
| 20260903191413 | 65 | 160 | 1.0 | 2.0 | 0.00 | 0.00 | 0.00 | 36 | 1020.4 |
| 20260903190415 | 65 | 162 | 5.0 | 7.0 | 0.00 | 0.00 | 0.00 | 34 | 1020.6 |
| 20260903185414 | 64 | 135 | 2.0 | 3.0 | 0.00 | 0.00 | 0.00 | 32 | 1020.7 |
| 20260903184413 | 64 | 149 | 3.0 | 5.0 | 0.00 | 0.00 | 0.00 | 33 | 1020.7 |
| 20260903183513 | 65 | 179 | 5.0 | 9.0 | 0.00 | 0.00 | 0.00 | 32 | 1020.7 |
| 20260903182513 | 65 | 220 | 1.0 | 3.0 | 0.00 | 0.00 | 0.00 | 33 | 1020.8 |
| 20260903181516 | 64 | 246 | 3.0 | 4.0 | 0.00 | 0.00 | 0.00 | 32 | 1020.9 |
| 20260903180517 | 63 | 214 | 2.0 | 5.0 | 0.00 | 0.00 | 0.00 | 35 | 1020.9 |
| 20260903175614 | 62 | 221 | 2.0 | 3.0 | 0.00 | 0.00 | 0.00 | 34 | 1020.9 |
| 20260903174613 | 60 | 165 | 1.0 | 3.0 | 0.00 | 0.00 | 0.00 | 36 | 1021.0 |
| 20260903173712 | 60 | 151 | 1.0 | 5.0 | 0.00 | 0.00 | 0.00 | 38 | 1020.9 |
| 20260903172811 | 60 | 240 | 2.0 | 4.0 | 0.00 | 0.00 | 0.00 | 38 | 1021.1 |